Regional Weather Roundup
Issued by NWS

Home | Current Version | Previous Version | Text Only | Print | Product List | Glossary On
Versions: 1 2 3 4 5 6 7 8 9 10 11 12 13 14 15 16 17 18 19 20 21 22 23 24 25 26 27 28 29 30 31 32 33 34 35 36 37 38 39 40 41 42 43 44 45 46 47 48 49 50
000
ASUS42 KFFC 302103
RWRGA
WEATHER ROUNDUP FOR GEORGIA
NATIONAL WEATHER SERVICE PEACHTREE CITY GA
500 PM EDT SAT JUL 30 2016

NOTE: "FAIR" INDICATES FEW OR NO CLOUDS BELOW 12,000 FEET WITH NO
SIGNIFICANT WEATHER AND/OR OBSTRUCTIONS TO VISIBILITY.

* = USE WITH CAUTION. THE STATIONS MARKED WITH AN ASTERISK MAY NOT
REPORT WEATHER SUCH AS PRECIPITATION, FOG, OR THUNDER AND ARE NOT
QUALITY CONTROLLED BY NWS.

THE REMARK "TC" DENOTES TEMPERATURE READING IN DEGREES CELSIUS.

GAZ001>058-302200-
NORTH GEORGIA

CITY           SKY/WX    TMP DP  RH WIND       PRES   REMARKS
ATLANTA        CLOUDY    79  73  82 W6        30.02F
ATHENS         CLOUDY    86  76  71 W7        30.00S HX  96
CHAMBLEE       MOSUNNY   85  72  65 SW8       30.02S HX  91
PEACHTREE CITY LGT RAIN  76  70  82 N5        30.01F
ROME           CLOUDY    88  70  55 W9        30.00R HX  93
WEST ATLANTA   LGT RAIN  80  72  76 SW6       30.01F
GAINESVILLE    MOSUNNY   88  69  53 W8        30.04R HX  92
CARTERSVILLE   MOSUNNY   89  69  51 CALM      30.01F HX  93


CITY           SKY/WX    TMP DP  RH WIND       PRES   REMARKS
DALTON*        CLOUDY    88  70  55 S3        29.99S HX  92
LAWRENCEVILLE* MOSUNNY   88  73  62 SW7       30.01F HX  96
MARIETTA       PTSUNNY   86  71  61 W8        30.02F HX  91
KENNESAW*      MOSUNNY   88  70  55 SW9       29.97S HX  92
CANTON*        MOSUNNY   90  57  33 W6        30.03S
BLAIRSVILLE*     N/A    N/A N/A N/A MISG      30.06R
$$

GAZ059>098-102>109-302200-
CENTRAL GEORGIA

CITY           SKY/WX    TMP DP  RH WIND       PRES   REMARKS
AUGUSTA-BUSH   PTSUNNY   91  73  55 SW5       29.95F HX  99
AUGUSTA-DANIEL MOSUNNY   90  75  61 S5        29.97F HX 100
COLUMBUS       PTSUNNY   92  67  43 NW8       29.98S HX  95
MACON          PTSUNNY   89  74  60 S9        29.98S HX  98
ROBINS AFB     PTSUNNY   91  74  57 S9        29.97F HX 100


CITY           SKY/WX    TMP DP  RH WIND       PRES   REMARKS
LAGRANGE*      PTSUNNY   87  78  74 N5        30.01F HX 100
MILLEDGEVILLE* CLOUDY    91  73  55 NW8       29.98R HX 100
$$

GAZ099>101-110>166-302200-
SOUTH GEORGIA

CITY           SKY/WX    TMP DP  RH WIND       PRES   REMARKS
SAVANNAH       PTSUNNY   96  74  48 S22       29.96S HX 107
VALDOSTA       SUNNY     96  70  42 CALM      29.97F HX 102
ALMA           SUNNY     99  65  32 S9        29.96F HX 102
ST SIMONS      SUNNY     92  74  55 SE10      29.98F HX 101
ALBANY         MOSUNNY   97  69  40 W12       29.98F HX 103
HUNTER AFB     MOSUNNY   91  77  64 SE10      29.95S HX 104
MOODY AFB      SUNNY     96  68  39 VRB3      29.97F HX 100
BRUNSWICK      SUNNY     95  77  55 SE12      29.99S HX 109


CITY           SKY/WX    TMP DP  RH WIND       PRES   REMARKS
BAINBRIDGE*    PTSUNNY   91  77  62 SW10      29.99S HX 105
MOULTRIE*      SUNNY     95  70  43 SW5       29.99S HX 101
VIDALIA*       PTSUNNY   97  70  41 NW8       29.96S HX 103
WAYCROSS*      SUNNY    102  72  37 W8        29.96F HX 111
DOUGLAS*       MOSUNNY   97  64  34 W9        29.98F HX  99
$$



USA.gov is the U.S. government's official web portal to all federal, state and local government web resources and services.